This demonstration page uses our WeatherBlox Daily Observations layout. Learn more.

Left ArrowRight Arrow

44.8408, -93.29828

Hourly Observations for July 30, 2021

Temp ( °F °C ) Dew Point ( °F °C ) Humidity (%) Winds ( mph kmh ) Pressure ( in mb ) Visibility ( mi km ) Precip ( " mm )
12:53 am 00:53 Partly Cloudy with Smoke 68 20 60 15.6 76 76 Calm 30.13 1020 3 5 0.00 0.00
1:53 am 01:53 Mostly Cloudy with Smoke 68 20 61 16.1 78 78 Calm 30.13 1020 3 5 0.00 0.00
2:53 am 02:53 Mostly Cloudy with Smoke 65 18.3 60 15.6 84 84 Calm 30.13 1020 3 5 0.00 0.00
3:53 am 03:53 Mostly Cloudy with Smoke 66 18.9 59 15 78 78 N 3 6 30.13 1020 3 5 0.00 0.00
4:53 am 04:53 Mostly Cloudy with Smoke 67 19.4 58 14.4 73 73 Calm 30.15 1021 3 5 0.00 0.00
5:53 am 05:53 Mostly Cloudy with Smoke 67 19.4 58 14.4 73 73 N 3 6 30.17 1022 3 5 0.00 0.00
6:53 am 06:53 Mostly Cloudy with Smoke 67 19.4 59 15 76 76 NNE 6 9 30.18 1022 4 6 0.00 0.00
7:53 am 07:53 Mostly Cloudy with Smoke 70 21.1 59 15 68 68 Calm 30.18 1022 4 6 0.00 0.00
8:53 am 08:53 Cloudy with Smoke 72 22.2 60 15.6 66 66 N 3 6 30.19 1023 4 6 0.00 0.00
9:53 am 09:53 Cloudy with Smoke 74 23.3 60 15.6 62 62 WNW 3 6 30.19 1022 4 6 0.00 0.00
10:53 am 10:53 Cloudy with Smoke 75 23.9 58 14.4 55 55 VRB 5 7 30.16 1021 4 6 0.00 0.00
11:53 am 11:53 Cloudy with Smoke 76 24.4 59 15 56 56 S 6 9 30.14 1021 4 6 0.00 0.00
12:53 pm 12:53 Cloudy with Smoke 76 24.4 58 14.4 54 54 VRB 3 6 30.14 1021 5 8 0.00 0.00
1:53 pm 13:53 Cloudy with Smoke 77 25 57 13.9 50 50 Calm 30.13 1020 6 10 0.00 0.00
2:53 pm 14:53 Cloudy with Smoke 77 25 58 14.4 52 52 W 6 9 30.12 1020 6 10 0.00 0.00
3:53 pm 15:53 Mostly Cloudy with Smoke 79 26.1 59 15 50 50 WSW 8 13 30.11 1020 6 10 0.00 0.00
4:53 pm 16:53 Mostly Cloudy with Smoke 79 26.1 58 14.4 49 49 WSW 10 17 30.10 1019 6 10 0.00 0.00
5:53 pm 17:53 Mostly Cloudy with Smoke 78 25.6 55 12.8 45 45 W 9 15 30.10 1019 6 10 0.00 0.00
6:53 pm 18:53 Partly Cloudy 77 25 56 13.3 48 48 SW 12 19 30.09 1019 7 11 0.00 0.00
7:53 pm 19:53 Partly Cloudy with Smoke 75 23.9 59 15 58 58 W 9 15 30.08 1019 6 10 0.00 0.00
8:53 pm 20:53 Mostly Clear with Smoke 73 22.8 62 16.7 69 69 W 10 17 30.08 1019 4 6 0.00 0.00
9:53 pm 21:53 Mostly Clear with Smoke 71 21.7 60 15.6 68 68 WSW 5 7 30.08 1019 5 8 0.00 0.00
10:53 pm 22:53 Clear with Smoke 70 21.1 60 15.6 71 71 WSW 7 11 30.08 1019 5 8 0.00 0.00
11:53 pm 23:53 Mostly Clear with Smoke 68 20 58 14.4 70 70 W 9 15 30.07 1018 4 6 0.00 0.00

Powered by AerisWeather